ONEWEB-0135 (47281 NORAD) Tracking and Keplerian Element Data

This shows tracking and keplerian element data for the satellite.

Feedback or suggestion? Click here.




ElementValue
Catalog47281
NameONEWEB-0135
Epoch Orbit171
Epoch Day62.91667824
Epoch Year2021
RAAN15.6746
Inclination87.6816
Eccentricity0.0013031
Argument of Perigee4.9603
Mean Anonmoly304.6629
Mean Motion13.9727505
Decay Rate-0.00030733
L11 47281U 20100Z 21062.91667824 -.00030733 00000-0 -22043-1 0 9999
L22 47281 87.6816 15.6746 0013031 4.9603 304.6629 13.97275050 1717

Live tracking and technical data element details for ONEWEB-0135 (NORAD 47281). ONEWEB-0135 can be tracked NOW for your location showing map with azimuth and elevation plus other details from your city location.

Track the satellite on the map from your city or location and see movement details for azimuth, elevation, latitude, longitude, range, height, and movement on the map or in text.







IsCatalogInMostPopularTable: catalog: 47281, numindb: 27
Update: records affected: 1



GetName: 47281 ONEWEB-0135

Hit Count: updated at: Fri, 05 Mar 2021 06:42:31 GMT